Volver al catálogo

SUPERVIEW NEO-2 01

ActivoCienciaSSO
NORAD 53128·PAYLOAD·🇨🇳 China

Lanzado Jul 15, 2022 desde Taiyuan Satellite Launch Center

Loading…

Próximos Pases (próximas 24 horas)

TLE

ActualizadoSource: Space-Track

Época: Sep 14, 2026, 23:03 UTC

1 53128U 22082A   26257.96047478  .00003959  00000-0  16390-3 0  9998
2 53128  97.3936 266.7523 0001718  87.2469 272.8965 15.24509791231886

Sigue SUPERVIEW NEO-2 01 en tiempo real con AllMySat

Download on the App Store